Location: Newark
(31.5350°N, 35.0986°E)
Time: 13:57:35
(UTC+00:00)

Explorer 7 - Pass Details

Date: 24 October 2019
Orbit: 485 x 680 km, 50.3° (Epoch: 12 November)

Event Time Altitude Azimuth Distance (km) Brightness Sun altitude
Rises 05:20:27 0° 192° (SSW) 2,656 10.5 17.5°
Reaches altitude 10° 05:23:12 10° 174° (S) 1,736 9.9 18.0°
Maximum altitude 05:25:57 18° 129° (SE) 1,270 11.0 18.6°
Drops below altitude 10° 05:28:38 10° 84° (E) 1,689 10.4 19.1°
Sets 05:31:16 0° 65° (ENE) 2,557 10.8 19.6°
